LEMUR-2-ANNABANANA (48923 NORAD) Tracking and Keplerian Element Data

This shows tracking and keplerian element data for the satellite.

Feedback or suggestion? Click here.




ElementValue
Catalog48923
NameLEMUR-2-ANNABANANA
Epoch Orbit1289
Epoch Day262.07802903
Epoch Year2021
RAAN29.66
Inclination97.5177
Eccentricity0.0011116
Argument of Perigee312.6497
Mean Anonmoly47.3797
Mean Motion15.1316118
Decay Rate1.846E-05
L11 48923U 21059AW 21262.07802903 .00001846 00000-0 10769-3 0 9990
L22 48923 97.5177 29.6600 0011116 312.6497 47.3797 15.13161180 12893

Live tracking and technical data element details for LEMUR-2-ANNABANANA (NORAD 48923). LEMUR-2-ANNABANANA can be tracked NOW for your location showing map with azimuth and elevation plus other details from your city location.

Track the satellite on the map from your city or location and see movement details for azimuth, elevation, latitude, longitude, range, height, and movement on the map or in text.







IsCatalogInMostPopularTable: catalog: 48923, numindb: 14
Update: records affected: 1



GetName: 48923 LEMUR-2-ANNABANANA

Hit Count: updated at: Fri, 24 Sep 2021 17:27:39 GMT